Location: Saint-Restitut
(44.3351°N, 4.7915°E)
Time: 16:05:00
(UTC+00:00)

CSL-04 Debris - Pass Details

Date: 26 February 2024
Orbit: 824 x 843 km, 98.8° (Epoch: 21 April)

Event Time Altitude Azimuth Distance (km) Brightness Sun altitude
Exits shadow 17:51:17 - 103° (ESE) 2,896 6.4 -5.6°
Reaches altitude 10° 17:53:10 10° 89° (E) 2,429 5.9 -6.0°
Maximum altitude 17:55:59 15° 57° (ENE) 2,116 5.8 -6.5°
Drops below altitude 10° 17:58:50 10° 25° (NNE) 2,434 6.3 -7.0°
Sets 18:02:14 0° 2° (N) 3,372 7.3 -7.6°
